www.pogodaiklimat.ru

Погода и климат >> Архив погоды >> Китай >> Синьцзян-Уйгурский автономный район >> Тажонг


ПОГОДА в Тажонге

  • Прогноз погоды в Тажонге
  • Монитор погоды в Тажонге

АРХИВ ПОГОДЫ в Тажонге

Время (UTC), дата Ветер
(напр.,м/с)
 
Видим.   Явления Облачность Т
(С)
Тd
(С)
f
(%)
Тe
(С)
Тes
(С)
Комфортность P
(гПа)
Po
(гПа)
Тmin
(С)
Tmax
(С)
R
(мм)
R24
(мм)
S
(см)
09 18.06 З 4 8000 м 9/9 1500 м
[]
+31.6 +4.4 18 +29 +30 жарко 996.6 881.0
12 18.06 С 9 6000 м пыльный позёмок 9/9 1500 м
[]
+31.6 +2.7 16 +29 +29 жарко 996.3 880.8
15 18.06 С 7 2100 м слаб. морось н/о +28.4 +4.0 21 +27 +27 жарко 996.8 880.1
18 18.06 С 4 3700 м мгла ?/? +26.4 +3.6 23 +25 +25 комфорт 997.5 882.0 +34.7
21 18.06 С 2 18 км н/о +21.7 +5.2 34 +22 +22 комфорт 998.4 879.0
00 19.06 С 4 21 км 9/9
[]
+21.2 +4.3 33 +21 +21 комфорт 1000.1 880.3 0.0
03 19.06 С 6 2700 м пыльный позёмок 9/9
[]
+27.3 +3.1 21 +26 +26 жарко 1000.4 882.8
06 19.06 В 2 6000 м пыль 9/9
[]
+32.1 +1.3 14 +29 +31 жарко 998.7 883.1 +20.6
09 19.06 С 4 10 км 9/9 1500 м
[]
+32.9 +0.9 13 +30 +31 жарко 997.7 882.5
12 19.06 В 4 17 км 9/9 1500 м
[]
+33.4 +1.3 13 +30 +30 жарко 997.3 882.3
15 19.06 С 7 1500 м мгла н/о +27.7 +7.6 28 +27 +27 жарко 999.7 882.4
18 19.06 С 5 н/о мгла ?/? +24.7 +6.9 32 +25 +25 комфорт 1000.6 882.1 +34.3
21 19.06 С 4 13 км н/о +21.5 +7.0 39 +22 +22 комфорт 1001.1 881.3
00 20.06 С 4 15 км 9/9
[]
+21.8 +6.5 37 +23 +23 комфорт 1002.2 882.4
03 20.06 С 5 11 км 9/9
[]
+26.9 +5.8 26 +26 +27 жарко 1004.0 885.9
06 20.06 С 6 11 км 9/9
[]
+28.9 +6.9 25 +28 +29 жарко 1003.7 886.3 +20.9
09 20.06 С 2 13 км 9/9
[]
+32.1 +4.8 18 +30 +31 жарко 1001.7 885.7
12 20.06 С 3 15 км 9/9
[]
+31.3 +4.2 18 +29 +29 жарко 1000.8 884.6
15 20.06 ЮВ 6 н/о слаб. дождь н/о +22.1 +11.5 51 +24 +24 комфорт 1005.0 885.0
18 20.06 С 1 15 км ?/? +20.4 +15.4 73 +24 +24 комфорт 1004.2 883.6 +32.7 2
21 20.06 СЗ 1 12 км н/о +17.4 +14.7 84 +18 +18 1003.2 881.6
00 21.06 ЮЗ 1 12 км 3/3
[]
+17.1 +14.9 87 +18 +19 1004.5 882.6 2
03 21.06 С 5 10 км 1/1
[]
+25.9 +10.1 37 +27 +32 жарко 1006.0 887.3
06 21.06 С 4 12 км ясно +30.3 +7.5 24 +29 +43 жарко 1004.5 887.6 +16.1
09 21.06 СВ 4 15 км 9/9 1500 м
[]
+32.1 +7.7 22 +31 +32 жарко 1002.7 886.6
12 21.06 С 4 8000 м 9/9 1500 м
[]
+31.2 +7.0 22 +30 +30 жарко 1002.0 885.7
15 21.06 С 5 4400 м мгла н/о +28.0 +10.2 33 +28 +28 жарко 1002.9 885.3
18 21.06 З 4 4500 м мгла ?/? +23.1 +13.3 54 +26 +26 жарко 1004.7 885.1 +33.1
21 21.06 З 6 7000 м н/о +21.9 +12.2 54 +24 +24 комфорт 1003.9 883.9
00 22.06 СЗ 5 10 км слаб. ливневой дождь 9/9 1500 м
[]
+19.6 +14.2 71 +21 +21 комфорт 1005.3 884.3 0.0
03 22.06 СЗ 6 11 км {ливн. осадки} 10/10 1500 м
[]
+21.8 +12.9 57 +24 +24 комфорт 1006.9 886.5
06 22.06 З 4 13 км слаб. ливневой дождь 10/10 1500 м
[]
+18.7 +15.6 82 +20 +20 1009.4 887.5 +17.9 0.4
09 22.06 З 4 17 км {ливн. осадки} 9/9 1500 м
[]
+22.4 +14.0 59 +26 +27 жарко 1007.2 887.0
12 22.06 З 2 18 км {ливн. осадки} 9/9 1500 м
[]
+24.3 +14.4 54 +27 +27 жарко 1005.7 886.4 0.2
15 22.06 С 1 3000 м дымка н/о +21.4 +14.8 66 +24 +24 комфорт 1006.4 885.9
18 22.06 штиль 0 17 км н/о +18.3 +14.4 78 +19 +19 1007.3 885.5 +24.5
21 22.06 штиль 0 17 км н/о +16.0 +12.9 82 +16 +16 1006.3 883.7
00 23.06 В 1 17 км 9/9 1500 м
[]
+14.9 +12.9 88 +15 +15 1007.1 884.0
03 23.06 СВ 4 16 км 3/3
[]
+24.3 +12.9 49 +26 +31 жарко 1006.5 887.1
06 23.06 СЗ 2 15 км 9/9
[]
+27.6 +11.6 37 +29 +31 жарко 1005.6 887.5 +14.1
09 23.06 З 5 14 км 9/9 1500 м
[]
+29.3 +11.4 33 +30 +31 жарко 1003.8 886.6
12 23.06 С 4 13 км {ливн. осадки} 9/9
[]
+28.6 +10.8 33 +29 +29 жарко 1004.2 886.7 0.0
15 23.06 З 1 13 км н/о +22.7 +11.8 50 +25 +25 комфорт 1005.6 885.7
18 23.06 ЮЗ 1 15 км н/о +21.9 +14.0 61 +25 +25 комфорт 1005.2 885.1 +29.9
21 23.06 Ю 2 16 км н/о +21.1 +13.8 63 +24 +24 комфорт 1005.3 884.8
00 24.06 СВ 1 20 км 9/9
[]
+18.5 +13.6 73 +20 +20 1007.3 885.6
03 24.06 СВ 2 17 км 3/3
[]
+26.5 +13.3 44 +28 +36 жарко 1007.8 889.1
06 24.06 С 4 19 км 9/9 1500 м
[]
+30.4 +10.9 30 +31 +32 жарко 1006.3 889.2 +18.0
09 24.06 С 2 26 км 8/8 1500 м
[]
+33.2 +8.6 22 +32 +35 жарко 1003.5 887.7
12 24.06 З 2 н/о слаб. ливневой дождь 10/10 1500 м
[]
+21.2 +14.8 67 +24 +24 комфорт 1008.5 887.7 6
15 24.06 В 3 30 км н/о +22.3 +13.4 57 +25 +25 комфорт 1006.8 886.6
18 24.06 штиль 0 30 км ?/? +18.6 +15.7 83 +19 +19 1007.2 888.7 +33.4 0.2
21 24.06 С 1 30 км н/о +18.2 +16.5 90 +20 +20 1005.7 884.1
00 25.06 В 1 30 км 9/9 1500 м
[]
+18.2 +16.5 90 +20 +20 1008.6 886.6 0.2
03 25.06 З 2 10 км 10/10 1500 м
[]
+22.5 +15.4 64 +26 +26 жарко 1007.9 887.7
06 25.06 СЗ 5 9000 м 10/10 1500 м
[]
+23.7 +13.8 54 +26 +26 жарко 1008.6 888.7 +17.9

 

Местоположение метеостанции Тажонг (Синьцзян-Уйгурский автономный район, Китай): широта 39.00 долгота 83.67 высота над уровнем моря 1099 м.

В архиве по умолчанию представлена погода в Тажонге за последнюю неделю. Архивные данные за месяц целиком и за предыдущие месяцы, начиная с января 2011 года, Вы можете получить, выбрав интересующий диапазон дат из раскрывающегося списка и нажав кнопку "Ввод!".


*Определитесь, кто Вы:
робот инопланетянин человек

Внимание! Время в таблицах - всемирное. Для получения местного времени необходимо прибавить поправку, которая равна 8 ч.

Смотрите также архив погоды в соседних городах и на ближайших метеорологических станциях:

Погода в Аларе (Синьцзян-Уйгурский автономный район, Китай) (279 км)
Погода в Куче (Синьцзян-Уйгурский автономный район, Китай) (309 км)
Погода в Корле (Синьцзян-Уйгурский автономный район, Китай) (370 км)
Погода в Хотане (Синьцзян-Уйгурский автономный район, Китай) (388 км)
Погода в Чарклыке (Синьцзян-Уйгурский автономный район, Китай) (389 км)
Погода в Тиканлике (Синьцзян-Уйгурский автономный район, Китай) (389 км)
Погода в Бачу (Синьцзян-Уйгурский автономный район, Китай) (447 км)
Погода в Баянбулаке (Синьцзян-Уйгурский автономный район, Китай) (450 км)
Погода в Балун Тай Кун (Синьцзян-Уйгурский автономный район, Китай) (465 км)
Погода в Акчи (Синьцзян-Уйгурский автономный район, Китай) (494 км)

Пояснения к столбцам:

Ветер - указаны скорость ветра в м/с - средняя за 10 мин, порывы в срок и между сроками (в фигурных скобках) и направление, откуда дует ветер: С - северный, СВ - северо-восточный, В - восточный, ЮВ - юго-восточный, Ю - южный, ЮЗ - юго-западный, З - западный, СЗ - северо-западный.
Видимость - горизонтальная дальность видимости в метрах или километрах. При видимости от 1 до 10 км при отсутствии осадков обычно наблюдается дымка, при ухудшении видимости до 1 км и менее - туман. В сухую погоду видимость может ухудшаться дымом, пылью или мглою.
Явления - указаны атмосферные явления, наблюдавшиеся в срок или в последний час перед сроком; фигурными скобками обозначены явления, наблюдавшиеся между сроками (за 1-3 часа до срока); квадратными скобками обозначены град или гололедные отложения с указанием их диаметра в мм.
Облачность - указаны через наклонную черту общая и нижняя облачность в баллах и высота нижней границы облаков в метрах; квадратными скобками обозначены формы облаков: Ci - перистые, Cs - перисто-слоистые, Cc - перисто-кучевые, Ac - высококучевые, As - высокослоистые, Sc - слоисто-кучевые, Ns - слоисто-дождевые, Cu - кучевые, Cb - кучево-дождевые. Подробнее классификацию облаков см. в Атласе облаков (PDF).
T - Температура воздуха - температура, измеренная на высоте 2 м над землей.
Td - Температура точки росы - температура, при понижении до которой содержащийся в воздухе водяной пар достигнет насыщения.
f - Относительная влажность воздуха - влажноcть воздуха, измеренная на высоте 2 м над землей.
Te - Эффективная температура - температура, которую ощущает одетый по сезону человек в тени. Характеристика душности погоды. При расчете учитывается влияние влажности воздуха и скорости ветра на теплоощущения человека.
Tes - Эффективная температура на солнце - температура, которую ощущает человек, с поправкой на солнечный нагрев. Характеристика знойности погоды. Зависит от высоты солнца над горизонтом, облачности и скорости ветра. Ночью, в пасмурную погоду, а также при ветре 12 м/с и более поправка равна нулю.
P - Атмосферное давление - приведенное к уровню моря атмосферное давление.
Po - Атмосферное давление - измеренное на уровне метеостанции атмосферное давление.
Tmin - Минимальная температура - минимум температуры воздуха на высоте 2 м над землей.
Tmax - Максимальная температура - максимум температуры воздуха на высоте 2 м над землей.
R - Количество осадков - Количество выпавших осадков за период времени, мм. При наведении курсора мыши на число - период времени, за который выпало указанное количество осадков.
R24 - Количество осадков - Количество выпавших осадков за 24 часа, мм.
S - Снежный покров - Высота снежного покрова, см. При наведении курсора мыши на число - состояние снежного покрова и степень покрытия местности в баллах.